[[{"header":{"parameterUnit":"m.s-1","parameterCategory":1,"la1":30.2992,"la2":30.254,"lo1":-89.0895,"lo2":-89.0443,"dy":0.0025,"dx":0.0025,"nx":19,"ny":19,"refTime":"2026-05-16T03:00:00:Z","depth":0,"parameterNumber":2,"parameterNumberName":"U-component_of_WINDS"},"data":[0,0,0,-1.3511,-1.3512,-1.3546,-1.3546,-1.3597,-1.3597,0,0,0,0,0,0,0,0,0,0,0,-1.3505,-1.3505,-1.3511,-1.3512,-1.3546,-1.3546,-1.3597,-1.3597,0,0,0,0,0,0,0,0,0,0,0,-1.3504,-1.3505,-1.3505,-1.3512,-1.3546,-1.3546,-1.3597,-1.3569,0,0,0,0,0,0,0,0,0,0,-1.3534,-1.3531,-1.3505,-1.3505,-1.3512,-1.3546,-1.3546,-1.3567,-1.357,-1.3584,0,-1.3597,0,-1.3598,-1.3601,-1.3601,0,0,0,-1.351,-1.3529,-1.3535,-1.3506,-1.3513,-1.3546,-1.353,-1.3569,-1.3573,-1.3589,-1.3598,-1.3599,-1.3599,-1.3602,-1.3602,-1.3689,-1.369,0,0,-1.3508,-1.3513,-1.3532,-1.3537,-1.3532,-1.3529,-1.3531,-1.3571,-1.3581,-1.3598,-1.36,-1.36,-1.3602,-1.3602,-1.3689,-1.369,0,0,0,-1.3504,-1.3512,-1.3516,-1.3535,-1.3541,-1.353,-1.3532,-1.358,-1.3581,-1.3601,-1.36,-1.3602,-1.3603,-1.3688,-1.3689,-1.372,0,0,0,-1.3503,-1.3509,-1.3516,-1.3519,-1.354,-1.3561,-1.354,-1.3578,-1.3582,-1.36,-1.3602,-1.3604,-1.3688,-1.3689,-1.3718,-1.3734,0,0,0,-1.3501,-1.3509,-1.3515,-1.3519,-1.3534,-1.356,-1.3563,-1.3579,-1.3582,-1.3601,-1.3604,-1.3687,-1.3689,-1.3716,-1.3731,-1.3759,0,0,0,-1.3501,-1.3542,-1.3516,-1.3561,-1.3534,-1.3579,-1.3563,-1.3596,-1.3616,-1.3603,-1.3688,-1.3689,-1.3716,-1.3729,-1.3757,-1.3784,-1.3796,0,0,-1.3556,-1.3549,-1.3575,-1.3553,-1.3603,-1.3573,-1.3628,-1.3642,-1.364,-1.3673,-1.3675,-1.3719,-1.3731,-1.3759,-1.3858,-1.3867,0,0,0,-1.3594,-1.3614,-1.3626,-1.3645,-1.3657,-1.3668,-1.3673,-1.3679,-1.3707,-1.3658,-1.3736,-1.3743,-1.376,-1.3772,-1.378,-1.3794,-1.3695,-1.3695,-1.3695,-1.3679,-1.3674,-1.3717,-1.3716,-1.3735,-1.374,-1.3756,-1.3764,-1.3752,-1.3771,-1.3781,-1.3842,-1.3857,-1.3863,-1.3878,-1.3795,-1.3795,-1.3795,-1.3795,-1.3759,-1.3786,-1.377,-1.3807,-1.3801,-1.3833,-1.3839,-1.383,-1.3859,-1.3834,-1.3848,-1.3821,-1.3873,-1.3886,-1.3797,-1.3797,-1.3796,-1.3796,-1.3796,-1.3815,-1.3827,-1.3832,-1.386,-1.3883,-1.388,-1.3909,-1.3902,-1.3897,-1.3911,-1.3921,-1.3921,-1.392,-1.3916,-1.3916,-1.3916,-1.3917,-1.3917,-1.3917,-1.387,-1.3876,-1.39,-1.3916,-1.3928,-1.3944,-1.395,-1.3962,-1.3973,-1.3967,-1.3967,-1.3954,-1.3879,-1.386,-1.392,-1.392,-1.3919,-1.3919,-1.3919,-1.3955,-1.3935,-1.3973,-1.3985,-1.4004,-1.4027,-1.4019,-1.4044,-1.4053,-1.4068,-1.4052,-1.3997,-1.399,-1.3984,-1.3968,-1.4052,-1.4052,-1.4052,-1.4052,-1.4002,-1.3998,-1.4036,-1.4056,-1.4075,-1.4071,-1.4115,-1.4121,-1.4123,-1.4129,-1.4115,-1.4095,-1.4088,-1.4085,-1.4076,-1.4062,-1.4168,-1.4168,-1.4168,-1.4054,-1.4052,-1.409,-1.4092,-1.4106,-1.4119,-1.4161,-1.4186,-1.4184,-1.4173,-1.4133,-1.4128,-1.4094,-1.4083,-1.4072,-1.4059,-1.4032,0,0]},{"header":{"parameterUnit":"m.s-1","parameterCategory":1,"la1":30.2992,"la2":30.254,"lo1":-89.0895,"lo2":-89.0443,"dy":0.0025,"dx":0.0025,"nx":19,"ny":19,"refTime":"2026-05-16T03:00:00:Z","depth":0,"parameterNumber":3,"parameterNumberName":"V-component_of_WINDS"},"data":[0,0,0,3.4083,3.4083,3.4098,3.4098,3.413,3.413,0,0,0,0,0,0,0,0,0,0,0,3.4088,3.4089,3.4083,3.4084,3.4098,3.4098,3.4129,3.413,0,0,0,0,0,0,0,0,0,0,0,3.4088,3.4089,3.4089,3.4084,3.4098,3.4098,3.4129,3.4113,0,0,0,0,0,0,0,0,0,0,3.4097,3.4112,3.4089,3.4089,3.4084,3.4098,3.4098,3.4112,3.4114,3.4129,0,3.4146,0,3.4139,3.4133,3.4133,0,0,0,3.4076,3.411,3.4105,3.4089,3.4084,3.4098,3.4089,3.4113,3.4116,3.4132,3.4146,3.4147,3.4139,3.4133,3.4134,3.4244,3.4245,0,0,3.4075,3.4096,3.4104,3.4107,3.4108,3.4089,3.409,3.4115,3.4131,3.4146,3.4148,3.414,3.4134,3.4134,3.4243,3.4244,0,0,0,3.4078,3.4096,3.409,3.4107,3.4108,3.409,3.4091,3.413,3.4127,3.4148,3.414,3.4134,3.4135,3.4242,3.4243,3.4304,0,0,0,3.4077,3.4097,3.409,3.4103,3.4108,3.412,3.4106,3.4125,3.4127,3.414,3.4134,3.4135,3.4241,3.4243,3.43,3.4329,0,0,0,3.4084,3.4098,3.4103,3.4104,3.4111,3.4119,3.4116,3.4125,3.4123,3.4133,3.4135,3.424,3.4242,3.4297,3.4323,3.4362,0,0,0,3.4097,3.4159,3.4105,3.417,3.4111,3.4157,3.4116,3.415,3.4166,3.4134,3.4241,3.4243,3.4296,3.432,3.4358,3.4396,3.4415,0,0,3.4186,3.417,3.4207,3.4159,3.422,3.4154,3.4223,3.4219,3.4201,3.423,3.4233,3.4302,3.4323,3.4361,3.4514,3.4529,0,0,0,3.4242,3.4268,3.428,3.4297,3.4295,3.4295,3.4278,3.4276,3.4299,3.4221,3.4327,3.4339,3.436,3.4377,3.4389,3.4405,3.4253,3.4253,3.4252,3.4397,3.437,3.4428,3.4403,3.4419,3.44,3.441,3.4404,3.4374,3.4399,3.4406,3.4503,3.4524,3.4533,3.4549,3.4426,3.4427,3.4427,3.4427,3.4523,3.4554,3.4511,3.4551,3.4522,3.4555,3.4539,3.4515,3.4541,3.4496,3.4513,3.4463,3.455,3.4563,3.4431,3.4431,3.443,3.443,3.4429,3.4619,3.4629,3.4626,3.4645,3.4662,3.4634,3.466,3.4633,3.4608,3.4626,3.4629,3.4628,3.4621,3.463,3.463,3.463,3.4631,3.4631,3.4631,3.4719,3.4713,3.4738,3.474,3.4745,3.4749,3.4729,3.4734,3.4731,3.4709,3.4709,3.4674,3.4564,3.4535,3.4636,3.4635,3.4635,3.4634,3.4634,3.4852,3.4817,3.4856,3.4862,3.486,3.4877,3.4843,3.4853,3.4853,3.4866,3.4827,3.4751,3.4732,3.4722,3.4698,3.4835,3.4835,3.4835,3.4835,3.4932,3.492,3.4952,3.4961,3.4968,3.494,3.4982,3.4967,3.4945,3.4942,3.4919,3.4886,3.4877,3.4863,3.485,3.4827,3.4993,3.4993,3.4993,3.501,3.4998,3.5039,3.5017,3.5013,3.501,3.5047,3.5059,3.5027,3.4999,3.4939,3.4932,3.4878,3.4862,3.4831,3.4811,3.4768,0,0]}]]